Simultaneous Nadir Overpasses (SNOs) Predictions

Prediction of SNOs between LANDSAT-8 and NOAA-19 Satellite Orbit:

Table of predicted SNOs for the next 14.0 days since TLE Epoch: 5/13/2023
Index Date (LANDSAT-8) Time (LANDSAT-8) Lat,Lon (LANDSAT-8) SZA (LANDSAT-8 ) Date (NOAA-19) Time (NOAA-19) Lat,Lon (NOAA-19) SZA (NOAA-19 ) Distance(km) Time Diff (sec)
1 05/14/2023 19:21:34 -80.94, 106.27 115.83 05/14/2023 19:21:19 -80.94, 106.45 115.81 3.10 15
2 05/14/2023 20:11:00 80.95, -86.03 64.18 05/14/2023 20:12:13 80.94, -86.05 64.21 0.63 73
3 05/17/2023 01:44:43 -80.95, 10.56 116.34 05/17/2023 01:44:50 -80.94, 10.71 116.33 2.71 7
4 05/19/2023 07:18:25 80.94, 107.07 63.16 05/19/2023 07:17:18 80.94, 107.25 63.15 3.10 67
5 05/19/2023 08:07:52 -80.94, -85.30 116.85 05/19/2023 08:08:21 -80.94, -85.13 116.82 3.08 29
6 05/21/2023 13:41:34 80.93, 11.05 62.65 05/21/2023 13:40:50 80.94, 11.07 62.65 1.41 44
7 05/21/2023 14:31:00 -80.95, 179.04 117.30 05/21/2023 14:31:52 -80.94, 178.94 117.30 2.10 52
8 05/23/2023 20:04:41 80.95, -84.42 62.26 05/23/2023 20:04:20 80.94, -84.43 62.24 1.21 21
9 05/23/2023 20:54:07 -80.98, 83.59 117.70 05/23/2023 20:55:21 -80.94, 83.67 117.68 4.22 74



Historial Predications of SNOs between LANDSAT-8 and NOAA-19
